Retour au catalogue

COSMOS 2426

GLONASS

ActifNavigationMEO
NORAD 29671·PAYLOAD·🇷🇺 Russia

Lancé Dec 25, 2006 depuis Baikonur Cosmodrome

Loading…

Prochains Passages (prochaines 24 heures)

TLE

FraisSource: Space-Track

Époque: Sep 14, 2026, 13:44 UTC

1 29671U 06062B   26257.57258448  .00000021  00000-0  00000-0 0  9997
2 29671  64.7014 191.5754 0021646 183.6948 356.0180  2.12963853153459

Suivez COSMOS 2426 en temps réel avec AllMySat

Download on the App Store